shoulder
new_line
new_line
first
second
third
Al di la della Luna; Beyond the Moon; Astrophotography; Astrofotografia; Danilo Pivato
 
 
         
         
2007

Orbital Elements

Epoch 2007 Oct. 27.0 TT = JDT 2454400.5
T 2007 Nov. 1.1859 TT                                                               MPC
q   1.924347              (2000.0)                     P                         Q
n   0.1192532      Peri.    49.0424       +0.7113408           -0.7023406
a   4.087797       Node   355.3357      +0.5048741          +0.5370184
e   0.529246       Incl.      19.1550      +0.4889748           +0.4672569
P   8.26
Returns in the future: 2024
 
         
         
2008.01.26
2008.01.26
2008.02.06
         
         
       
       
         
         
         

 

       
 
Since: 01/01/2004
 
       
 
Since: 01/11/2010